EW1090 Weather Reports


Display with metric or nautical units.
time (UTC)temp
F
wind
direction
speed
MPH
gust
MPH
rain 1hr
in
rain 24hr
in
rain mn
in
humidity
%
barometer
mb
20260503131325 68 22 0.0 0.0 0.01 0.71 0.46 63 1021.5
20260503130821 67 22 0.0 0.0 0.01 0.71 0.46 65 1021.5
20260503130317 66 22 0.0 0.0 0.01 0.71 0.46 68 1021.4
20260503110814 54 22 0.0 0.0 0.00 0.81 0.44 75 1020.1
20260503110329 54 22 0.0 0.0 0.01 0.81 0.44 74 1020.2
20260503090314 62 22 0.0 0.0 0.01 0.93 0.43 61 1020.1
20260503081326 64 9 0.0 1.0 0.01 0.99 0.42 55 1019.6
20260503080816 64 9 0.0 1.0 0.01 0.99 0.42 55 1019.6
20260503080333 65 128 0.0 2.0 0.01 0.99 0.42 55 1019.5
20260503072826 65 24 0.0 3.0 0.01 0.98 0.41 55 1019.3
20260503072323 65 18 1.0 3.0 0.01 0.98 0.41 54 1019.2
20260503071819 65 42 1.0 3.0 0.01 0.98 0.41 53 1019.2
20260503071317 65 38 0.0 5.0 0.01 1.06 0.41 54 1019.2
20260503070834 65 13 0.0 5.0 0.01 1.06 0.41 52 1019.2
20260503070329 65 23 0.0 3.0 0.01 1.06 0.41 53 1019.2
20260503054801 67 36 0.0 7.0 0.01 1.13 0.40 52 1019.0
20260503054318 67 327 1.0 7.0 0.01 1.13 0.40 52 1019.0
20260503053830 67 306 1.0 9.0 0.01 1.13 0.40 51 1019.1
20260503053305 67 52 2.0 10.0 0.01 1.13 0.40 51 1018.9
20260503052801 67 313 0.0 10.0 0.01 1.13 0.40 51 1018.9
20260503052257 67 17 2.0 8.0 0.01 1.13 0.40 50 1018.8
20260503051814 67 54 1.0 8.0 0.00 1.12 0.39 51 1018.8
20260503051311 67 14 1.0 8.0 0.00 1.20 0.39 50 1018.9
20260503050807 67 22 1.0 8.0 0.01 1.20 0.39 51 1019.0
20260503050302 67 15 1.0 8.0 0.01 1.20 0.39 49 1019.0
20260503045819 67 40 0.0 7.0 0.01 1.20 0.39 51 1018.9
20260503045314 67 331 1.0 9.0 0.01 1.20 0.39 50 1018.9
20260503044811 67 21 0.0 7.0 0.01 1.20 0.39 51 1018.9
20260503044308 67 40 1.0 10.0 0.01 1.20 0.39 50 1018.8
20260503043823 67 360 1.0 10.0 0.01 1.20 0.39 51 1018.9
20260503043258 67 348 1.0 12.0 0.01 1.20 0.39 50 1018.8
20260503042814 67 329 0.0 12.0 0.01 1.20 0.39 50 1018.8
20260503042311 67 17 1.0 11.0 0.01 1.20 0.39 50 1018.5
20260503041808 67 325 2.0 11.0 0.01 1.20 0.39 50 1018.6
20260503041303 68 346 0.0 3.0 0.01 1.29 0.39 49 1018.5
20260503040759 68 342 0.0 5.0 0.00 1.28 0.38 47 1018.5
20260503040256 68 298 1.0 7.0 0.00 1.28 0.38 49 1018.4
20260503035812 68 9 1.0 7.0 0.00 1.28 0.38 48 1018.5
20260503035309 67 5 1.0 7.0 0.01 1.28 0.38 49 1018.5
20260503034804 67 5 0.0 4.0 0.01 1.28 0.38 50 1018.5
20260503034320 67 71 0.0 4.0 0.01 1.28 0.38 51 1018.5
20260503033835 68 41 0.0 4.0 0.01 1.28 0.38 51 1018.4
20260503033330 68 313 0.0 4.0 0.01 1.28 0.38 50 1018.4
20260503032825 68 355 0.0 4.0 0.01 1.28 0.38 50 1018.3
20260503032300 68 318 0.0 8.0 0.01 1.28 0.38 49 1018.2
20260503031757 68 292 0.0 8.0 0.01 1.28 0.38 47 1018.2
20260503031314 68 29 0.0 4.0 0.01 1.37 0.38 48 1018.2
20260503030809 68 10 0.0 6.0 0.01 1.37 0.38 49 1018.1
20260503030305 68 333 1.0 7.0 0.01 1.37 0.38 47 1018.0
20260503025801 68 17 0.0 7.0 0.01 1.37 0.38 48 1018.0
20260503025258 68 265 0.0 5.0 0.00 1.36 0.37 47 1018.0
20260503024829 68 299 1.0 8.0 0.00 1.36 0.37 46 1018.0
20260503024304 68 22 1.0 8.0 0.01 1.36 0.37 47 1018.0
20260503023309 69 12 0.0 8.0 0.01 1.36 0.37 47 1017.9
20260503022827 69 335 0.0 5.0 0.01 1.36 0.37 45 1017.7
20260503022304 69 20 0.0 5.0 0.01 1.36 0.37 46 1017.6
20260503021818 68 59 0.0 9.0 0.01 1.36 0.37 46 1017.6
20260503021335 68 5 1.0 9.0 0.01 1.45 0.37 46 1017.6
20260503020810 68 284 0.0 5.0 0.01 1.45 0.37 45 1017.5
20260503020306 68 22 0.0 5.0 0.01 1.45 0.37 46 1017.6
20260503015802 68 344 0.0 3.0 0.01 1.45 0.37 46 1017.4
20260503015258 68 347 0.0 5.0 0.01 1.45 0.37 47 1017.4
20260503014814 68 360 0.0 6.0 0.01 1.45 0.37 46 1017.3
20260503013808 69 15 0.0 6.0 0.01 1.44 0.36 48 1017.4
20260503013304 69 323 1.0 5.0 0.01 1.44 0.36 47 1017.3
20260503012821 69 313 1.0 5.0 0.01 1.44 0.36 47 1017.2
20260503012316 69 325 0.0 6.0 0.01 1.44 0.36 46 1017.1
20260503011812 69 294 1.0 6.0 0.01 1.44 0.36 48 1017.1
20260503011307 69 348 1.0 5.0 0.01 1.55 0.36 48 1017.0
20260503010802 69 20 1.0 6.0 0.01 1.55 0.36 47 1016.9
20260503010257 69 35 1.0 6.0 0.01 1.55 0.36 48 1016.8
20260503005813 69 5 0.0 7.0 0.01 1.55 0.36 47 1016.7
20260503005304 69 340 2.0 7.0 0.01 1.55 0.36 47 1016.6
20260503004817 69 12 0.0 4.0 0.01 1.55 0.36 47 1016.6
20260503004334 70 349 0.0 4.0 0.02 1.55 0.36 46 1016.5